Regional Weather Roundup
Issued by NWS Sioux Falls, SD

Home | Current Version | Previous Version | Text Only | Print | Product List | Glossary Off
Versions: 1 2 3 4 5 6 7 8 9 10 11 12 13 14 15 16 17 18 19 20 21 22 23 24 25 26 27 28 29 30 31 32 33 34 35 36 37 38 39 40 41 42 43 44 45 46 47 48 49 50

000
ASUS43 KFSD 020410
RWRFSD

WEATHER ROUNDUP FOR SE SOUTH DAKOTA/SW MINNESOTA/NW IOWA
NATIONAL WEATHER SERVICE SIOUX FALLS SD
1100 PM CDT WED JUL 01 2015

NOTE: "FAIR" INDICATES FEW OR NO CLOUDS BELOW 12,000 FEET WITH NO
SIGNIFICANT WEATHER AND OR OBSTRUCTIONS TO VISIBILITY.


SDZ038>040-050-052>070-020500-
SOUTHEAST SOUTH DAKOTA

CITY           SKY/WX    TMP DP  RH WIND       PRES   REMARKS
BROOKINGS      CLEAR     63  54  72 E8        30.01R
CHAMBERLAIN    NOT AVBL
HURON          PTCLDY    67  64  90 E6        29.95R
MADISON        FAIR      63  59  88 SE8       29.99R
MITCHELL       PTCLDY    68  66  93 E6        29.96R
SIOUX FALLS    PTCLDY    64  55  72 E7        29.98R
WINNER         FAIR      72  65  78 SE7       29.96R
YANKTON        PTCLDY    70  63  78 E9        29.94R
$$

MNZ071-072-080-081-089-090-097-098-020500-
SOUTHWEST MINNESOTA

CITY           SKY/WX    TMP DP  RH WIND       PRES   REMARKS
FAIRMONT       CLEAR     55  48  76 E5        30.00S
JACKSON        PTCLDY    57  54  88 E6        30.02R
LUVERNE        CLEAR     64  57  77 E6        29.99S
MARSHALL       CLEAR     63  50  63 SE6       29.99S
MONTEVIDEO     CLEAR     57  54  88 S5        30.02R
PIPESTONE      CLEAR     63  52  67 SE6       30.00R
REDWOOD FALLS  FAIR      61  52  72 E3        30.01R
TRACY          CLEAR     60  56  86 SE6       30.01S
WINDOM         CLEAR     57  54  88 CALM      30.02R
WORTHINGTON    PTCLDY    59  52  77 E5        30.01R
$$

IAZ001>003-012>014-020>022-031-032-NEZ013-014-SDZ071-020500-
NORTHWEST IOWA

CITY           SKY/WX    TMP DP  RH WIND       PRES   REMARKS
CHEROKEE       PTCLDY    62  56  81 E6        29.99R
DENISON        PTCLDY    64  61  88 E7        29.94S
ESTHERVILLE    PTCLDY    56  54  93 E6        30.00S
LE MARS        PTCLDY    66  57  72 E9G15     29.97S
ORANGE CITY    PTCLDY    61  55  82 E8        29.98R
SHELDON        CLOUDY    61  61 100 E8        29.98R
SIOUX CITY     CLEAR     67  59  75 E8        29.95R
SPENCER        MOCLDY    60  53  77 E3        30.00R
STORM LAKE     PTCLDY    61  54  77 E8        29.99S
$$

ABBREVIATIONS USED IN REMARKS
   TC - TEMPERATURE IN CELSIUS
  WCI - WIND CHILL INDEX
   HX - HEAT INDEX
  VSB - VISIBILITY




USA.gov is the U.S. government's official web portal to all federal, state and local government web resources and services.